Location: ??????????
(44.2167°N, 135.5333°E)
Time: 15:25:07
(UTC+00:00)

Cosmos 1809 Rocket - Pass Details

Date: 15 June 2025
Orbit: 940 x 964 km, 82.5° (Epoch: 16 July)

Event Time Altitude Azimuth Distance (km) Brightness Sun altitude
Exits shadow 12:15:16 11° 176° (S) 2,620 6.3 -12.8°
Maximum altitude 12:21:11 68° 95° (E) 1,024 4.5 -13.5°
Drops below altitude 10° 12:27:17 10° 13° (NNE) 2,686 7.4 -14.1°
Sets 12:29:47 0° 12° (NNE) 3,631 8.2 -14.4°
